Lexington Weather

Lexington, Massachusetts, USA

54°F
12/10/2019 5:09pm 
  • Lexington Conditions: Overcast
  • Temperature: 53.8°F / 12.1°CColder 0.3°F than last hour.
  • Dew Point: 52.3°FDecreased 0.2°Fsince last hour.
  • Relative Humidity: 95%Increased 1.0% since last hour.
  • Wind: Wind from WSW WSW 2 mph, 10-min avg: 3 mph, gust: 9 mph
  • Barometer: 29.71 in Steady
  • Visibility: 10 miles
  • Rain Today: 0.05 in
  •   

Regional Weather Roundup
for Boston / Norton, MA

        
000
ASUS41 KBOX 090301
RWRBOX

REGIONAL WEATHER ROUNDUP
NATIONAL WEATHER SERVICE BOSTON/NORTON MA
1000 PM EST SUN DEC 08 2019

NOTE:  "FAIR" INDICATES FEW OR NO CLOUDS BELOW 12,000 FEET WITH NO 
SIGNIFICANT WEATHER AND/OR OBSTRUCTIONS TO VISIBILITY.

MAZALL-090400-
EASTERN MASSACHUSETTS
  
CITY           SKY/WX    TMP DP  RH WIND       PRES   REMARKS
BOSTON         CLOUDY    38  29  70 S12       30.35F WCI  30          
BEVERLY        FAIR      35  27  72 S8        30.34F WCI  29          
LAWRENCE       FAIR      32  24  72 S6        30.34F WCI  26          
BEDFORD        MOCLDY    34  24  67 S8        30.33F WCI  27          
BLUE HILL        N/A     33  28  81 S20G31    30.31F WCI  21          
NORWOOD        FAIR      39  28  64 SW9       30.36F                  
MARSHFIELD     NOT AVBL                                               
PLYMOUTH       FAIR      38  32  79 S5        30.37F                  
TAUNTON        FAIR      34  28  79 S3        30.38F                  
NEW BEDFORD    MOCLDY    42  32  67 S10       30.38F                  
$$

MAZALL-090400-
CAPE COD AND THE ISLANDS
  
CITY           SKY/WX    TMP DP  RH WIND       PRES   REMARKS
FALMOUTH       MOCLDY    41  34  75 S17       30.39F                  
HYANNIS        NOT AVBL                                               
CHATHAM        FAIR      40  34  79 S9G18     30.43F                  
PROVINCETOWN   FAIR      41  35  79 S15G25    30.39F                  
NANTUCKET      FAIR      43  35  73 S16       30.43F                  
MARTHAS VNYRD  MOCLDY    45  35  68 S17       30.41F                  
$$
 
MAZALL-090400-
CENTRAL AND WESTERN MASSACHUSETTS
  
CITY           SKY/WX    TMP DP  RH WIND       PRES   REMARKS
WORCESTER      FAIR      31  25  78 SW17      30.31F WCI  19          
FITCHBURG      FAIR      36  26  67 SW12G23   30.31F WCI  28          
ORANGE         MOCLDY    35  26  69 S9        30.31F WCI  28          
SPRINGFIELD    MOCLDY    30  23  76 S7        30.33F WCI  23          
WESTFIELD      CLOUDY    31  22  69 S6        30.34F WCI  25          
NORTH ADAMS    CLOUDY    35  22  58 SW8G20    30.25F WCI  29          
PITTSFIELD     CLOUDY    34  24  67 S10G22    30.25F WCI  26          
$$
 
RIZALL-090400-
RHODE ISLAND
  
CITY           SKY/WX    TMP DP  RH WIND       PRES   REMARKS
PROVIDENCE     CLOUDY    28  26  92 S6        30.39F WCI  22          
NEWPORT        FAIR      44  32  62 SW10G18   30.39F                  
BLOCK ISLAND   MOCLDY    45  34  65 SW17      30.40F                  
SMITHFIELD     FAIR      34  29  82 SW7       30.36F WCI  28          
WESTERLY       FAIR      44  33  65 SW7       30.40F                  
$$
 
CTZALL-090400-
CONNECTICUT
  
CITY           SKY/WX    TMP DP  RH WIND       PRES   REMARKS
BRADLEY INTL   MOCLDY    34  22  61 S5        30.35F WCI  30          
HARTFORD       FAIR      27  22  81 CALM      30.37F                  
BRIDGEPORT     MOCLDY    40  35  83 CALM      30.38S                  
DANBURY        FAIR      28  25  88 CALM      30.36F                  
GROTON         NOT AVBL                                               
NEW HAVEN      CLOUDY    44  36  73 S5        30.37F                  
CHESTER        MOCLDY    39  34  81 S6        30.36F                  
MERIDEN        MOCLDY    27  24  89 CALM      30.37S                  
WILLIMANTIC    FAIR      23  17  78 CALM      30.39F                  
OXFORD         FAIR      32  29  88 SW5       30.35F WCI  27          
$$

MEZ002-015-021-024-NHZ003-005-008-011-012-014-VTZ005-008-090400-
NORTHERN NEW ENGLAND
  
CITY           SKY/WX    TMP DP  RH WIND       PRES   REMARKS
PORTLAND ME    MOCLDY    35  19  52 SW9       30.31F WCI  28          
BANGOR ME      MOCLDY    35  23  61 S15G23    30.25F WCI  25          
CONCORD NH     MOCLDY    28  15  58 SE5       30.31F WCI  23          
MANCHESTER NH  CLOUDY    30  20  66 S5        30.31F WCI  25          
NASHUA NH      FAIR      31  23  72 SE3       30.32F                  
PORTSMOUTH NH  CLOUDY    31  21  67 S6        30.31F WCI  25          
JAFFREY NH     CLOUDY    32 N/A N/A S7        30.27F WCI  26          
KEENE NH       CLOUDY    30  23  75 CALM      30.30S                  
BURLINGTON VT  MOCLDY    33  20  58 S30G39    30.13F WCI  19          
MT. WASHINGTON FOG       18  18 100 W60G67      N/A  VSB 1/16WCI  -8  
$$

NYZ052-076-090400-
EASTERN NEW YORK
  
CITY           SKY/WX    TMP DP  RH WIND       PRES   REMARKS
ALBANY         MOCLDY    37  20  50 S20G29    30.25F WCI  27          
NEW YORK CITY  MOCLDY    43  32  65 CALM      30.37F                  
$$
 
ANZALL-090400-
MARINE OBSERVATIONS
  
STATION/POSITION TIME  TEMP    WIND        PRES    VSBY  WAVE
                       AIR SEA DIR/SP/G                  HT/PER
                 (UTC) (F)     (DEG/KT/KT) (MB)    (MI)  (FT/S)
BOSTON BUOY      0150   37 47  190/ 14/ 16 1028.4          2/ 4
BUZZARDS BAY     0200   45     200/ 24/ 26 1029.5F
NANTUCKET SOUND  0240      42              1030.1
MASS BAY-STELLWA 0204   39 46  230/ 17/ 21 1026.9F  1 7/8  4/ 5
ISLE OF SHOALS   0200   36     210/ 30/ 33 1026.8F
S OF BLOCK IS    0230      51                N/A           4/ 5
$$

......................KEY.........................
  SKY/WX - SKY CONDITION/PRESENT WEATHER
  TMP    - TEMPERATURE IN FAHRENHEIT
  DWPT   - DEWPOINT IN FAHRENHEIT
  RH     - RELATIVE HUMIDITY IN PERCENT
  WIND   - DIRECTION AND SPEED IN MPH
  PRES   - MEAN SEA LEVEL PRESSURE IN INCHES OF HG
  WCI    - WIND CHILL INDEX
  VSB    - VISIBILITY IN MILES
  HX     - HEAT INDEX
  TC     - TEMPERATURE IN CELSIUS
  VRB    - VARIABLE WIND DIRECTION
  N/A    - NOT AVAILABLE
  
      

Other recent Regional Weather Roundups

Tue Dec 10, 5:00pm

Tue Dec 10, 4:10pm

Tue Dec 10, 4:01pm

Tue Dec 10, 3:10pm

Tue Dec 10, 3:01pm

Tue Dec 10, 2:10pm

Tue Dec 10, 2:01pm

Tue Dec 10, 1:10pm

Tue Dec 10, 1:00pm

Tue Dec 10, 12:10pm

Tue Dec 10, 12:00pm

Tue Dec 10, 11:10am

Tue Dec 10, 11:00am

Tue Dec 10, 10:10am

Tue Dec 10, 10:00am

Tue Dec 10, 9:10am

Tue Dec 10, 9:01am

Tue Dec 10, 8:10am

Tue Dec 10, 8:00am

Tue Dec 10, 7:10am

Tue Dec 10, 7:00am

Tue Dec 10, 6:10am

Tue Dec 10, 6:00am

Tue Dec 10, 5:10am

Tue Dec 10, 5:00am

Tue Dec 10, 4:10am

Tue Dec 10, 4:00am

Tue Dec 10, 3:10am

Tue Dec 10, 3:00am

Tue Dec 10, 2:10am

Tue Dec 10, 2:01am

Tue Dec 10, 1:10am

Tue Dec 10, 1:00am

Tue Dec 10, 12:10am

Tue Dec 10, 12:01am

Mon Dec 9, 11:10pm

Mon Dec 9, 11:01pm

Mon Dec 9, 10:10pm

Mon Dec 9, 10:00pm

Mon Dec 9, 9:10pm

Mon Dec 9, 9:01pm

Mon Dec 9, 8:10pm

Mon Dec 9, 8:01pm

Mon Dec 9, 7:10pm

Mon Dec 9, 7:00pm

Mon Dec 9, 6:10pm

Mon Dec 9, 6:00pm

Mon Dec 9, 5:10pm

Mon Dec 9, 5:01pm

Mon Dec 9, 4:10pm

Mon Dec 9, 4:01pm

Mon Dec 9, 3:10pm

Mon Dec 9, 3:01pm

Mon Dec 9, 2:10pm

Mon Dec 9, 2:00pm

Mon Dec 9, 1:10pm

Mon Dec 9, 1:00pm

Mon Dec 9, 12:10pm

Mon Dec 9, 12:00pm

Mon Dec 9, 11:10am

Mon Dec 9, 11:00am

Mon Dec 9, 10:10am

Mon Dec 9, 10:00am

Mon Dec 9, 9:10am

Mon Dec 9, 9:00am

Mon Dec 9, 8:10am

Mon Dec 9, 8:00am

Mon Dec 9, 7:10am

Mon Dec 9, 7:00am

Mon Dec 9, 6:10am

Mon Dec 9, 6:00am

Mon Dec 9, 5:10am

Mon Dec 9, 5:00am

Mon Dec 9, 4:10am

Mon Dec 9, 4:00am

Mon Dec 9, 3:10am

Mon Dec 9, 3:00am

Mon Dec 9, 2:10am

Mon Dec 9, 2:00am

Mon Dec 9, 1:10am

Mon Dec 9, 1:00am

Mon Dec 9, 12:10am

Mon Dec 9, 12:00am

Sun Dec 8, 11:10pm

Sun Dec 8, 11:00pm

Sun Dec 8, 10:10pm

Sun Dec 8, 9:10pm

Sun Dec 8, 9:01pm

Sun Dec 8, 8:10pm

Sun Dec 8, 8:00pm

Sun Dec 8, 7:10pm

Sun Dec 8, 7:00pm

Sun Dec 8, 6:10pm

Sun Dec 8, 6:01pm

Sun Dec 8, 5:10pm

Sun Dec 8, 5:00pm

Sun Dec 8, 4:10pm

Sun Dec 8, 4:01pm

Sun Dec 8, 3:10pm

Sun Dec 8, 3:01pm

Sun Dec 8, 2:10pm

Sun Dec 8, 2:01pm

Sun Dec 8, 1:10pm

Sun Dec 8, 1:00pm

Sun Dec 8, 12:10pm

Sun Dec 8, 12:01pm

Sun Dec 8, 11:10am

Sun Dec 8, 11:00am

Sun Dec 8, 10:10am

Sun Dec 8, 10:01am

Sun Dec 8, 9:10am

Sun Dec 8, 9:00am

Sun Dec 8, 8:10am

Sun Dec 8, 8:00am

Sun Dec 8, 7:10am

Sun Dec 8, 7:00am

Sun Dec 8, 6:10am

Sun Dec 8, 6:00am

Sun Dec 8, 5:10am

Sun Dec 8, 5:00am

Sun Dec 8, 4:10am

Sun Dec 8, 4:00am

Sun Dec 8, 3:10am

Sun Dec 8, 3:00am

Sun Dec 8, 2:10am

Sun Dec 8, 2:00am

Sun Dec 8, 1:10am

Sun Dec 8, 1:00am

Sun Dec 8, 12:10am

Sun Dec 8, 12:01am

Sat Dec 7, 11:10pm

Sat Dec 7, 11:00pm

Sat Dec 7, 10:10pm

Sat Dec 7, 10:00pm

Sat Dec 7, 9:10pm

Sat Dec 7, 9:00pm

Sat Dec 7, 8:10pm

Sat Dec 7, 8:00pm

Sat Dec 7, 7:10pm

Sat Dec 7, 7:00pm

Sat Dec 7, 6:10pm

Sat Dec 7, 6:00pm

Sat Dec 7, 5:10pm

Meta data:

ID: a3845f0f-8633-426e-8552-6f03a9606e7c
Link: https://api.weather.gov/products/a3845f0f-8633-426e-8552-6f03a9606e7c